This is the latest recevied weather packets stored in our database for station/object DD3UTS-13. If no packets are shown the sender has not sent any weather packets the latest 10 day(s).
| Time | Temp. | Humidity | Pressure | Rain* | Wind** | Luminosity | Snow |
|---|---|---|---|---|---|---|---|
| 1777751431 | 15.56° C | 44% | 1016.7 hPa | 0 mm | - | 0 W/m² | - |
| 1777751132 | 15.56° C | 44% | 1016.7 hPa | 0 mm | - | 0 W/m² | - |
| 1777750832 | 16.11° C | 43% | 1016.7 hPa | 0 mm | - | 0 W/m² | - |
| 1777750532 | 16.67° C | 42% | 1016.7 hPa | 0 mm | - | 0 W/m² | - |
| 1777750232 | 17.78° C | 40% | 1016.7 hPa | 0 mm | - | 0 W/m² | - |
| 1777749932 | 17.78° C | 39% | 1016.7 hPa | 0 mm | - | 0 W/m² | - |
| 1777749632 | 17.78° C | 39% | 1016.6 hPa | 0 mm | - | 0 W/m² | - |
| 1777749332 | 17.78° C | 39% | 1016.7 hPa | 0 mm | - | 0 W/m² | - |
| 1777749032 | 17.78° C | 39% | 1016.7 hPa | 0 mm | - | 0 W/m² | - |
| 1777748732 | 17.78° C | 39% | 1016.7 hPa | 0 mm | - | 0 W/m² | - |
| 1777748433 | 18.33° C | 39% | 1016.7 hPa | 0 mm | - | 0 W/m² | - |
| 1777748132 | 18.33° C | 38% | 1016.7 hPa | 0 mm | - | 0 W/m² | - |
| 1777747832 | 18.33° C | 38% | 1016.7 hPa | 0 mm | - | 0 W/m² | - |
| 1777747532 | 18.33° C | 38% | 1016.7 hPa | 0 mm | - | 0 W/m² | - |
| 1777747232 | 18.33° C | 38% | 1016.7 hPa | 0 mm | - | 0 W/m² | - |
| 1777746931 | 18.33° C | 38% | 1016.7 hPa | 0 mm | - | 0 W/m² | - |
| 1777746632 | 18.33° C | 39% | 1016.7 hPa | 0 mm | - | 0 W/m² | - |
| 1777746332 | 18.89° C | 39% | 1016.8 hPa | 0 mm | - | 3 W/m² | - |
| 1777746033 | 18.33° C | 39% | 1016.8 hPa | 0 mm | - | 7 W/m² | - |
| 1777745732 | 18.89° C | 39% | 1016.8 hPa | 0 mm | - | 14 W/m² | - |
| 1777745432 | 18.89° C | 39% | 1016.8 hPa | 0 mm | - | 20 W/m² | - |
| 1777745132 | 19.44° C | 37% | 1016.8 hPa | 0 mm | - | 48 W/m² | - |
| 1777744832 | 19.44° C | 37% | 1016.8 hPa | 0 mm | - | 78 W/m² | - |
| 1777744532 | 20.56° C | 35% | 1016.9 hPa | 0 mm | - | 146 W/m² | - |
| 1777744232 | 20.56° C | 35% | 1016.9 hPa | 0 mm | - | 184 W/m² | - |
* Rain latest 24 hours (hover to see other rain measurements)
** Current wind speed in m/s (hover to see current wind gust speed)